Location: Fazenda Monte Alegre
(4.8500°S, 38.0333°W)
Time: 17:14:48
(UTC+00:00)

Tsikada Rocket - Pass Details

Date: 24 September 2020
Orbit: 958 x 1009 km, 82.9° (Epoch: 24 October)

Event Time Altitude Azimuth Distance (km) Brightness Sun altitude
Rises 20:54:58 0° 352° (N) 3,635 7.1 -7.7°
Reaches altitude 10° 20:57:27 10° 350° (N) 2,697 6.4 -8.3°
Maximum altitude 21:03:35 70° 267° (W) 1,036 4.4 -9.8°
Drops below altitude 10° 21:09:51 10° 184° (S) 2,746 6.4 -11.4°
Sets 21:12:24 0° 181° (S) 3,706 7.1 -12.0°
